Home   Weather   Luleå   Past weeks
Flag for Sweden

Past Weather in Luleå, Sweden — Yesterday and Last 2 Weeks

Now
46 °F

Overcast.


Feels Like: 46 °F
Forecast: 45 / 41 °F
Wind: 1 mph from East

Location: Lulea / Kallax

Current Time: May 24, 2019 at 1:06:31 am

Latest Report: May 24, 2019 at 12:00 am


Visibility: 25 mi

Pressure: 29.97 "Hg

Humidity: 58%

Dew Point: 31 °F

Location of LuleåLocation

Past Weather in Luleå — Graph

°F

Luleå Temperature Yesterday

Maximum temperature yesterday: 47 °F (at 6:00 pm)
Minimum temperature yesterday: 39 °F (at 3:00 am)
Average temperature yesterday: 44 °F

High & Low Weather Summary for the Past Weeks

 TemperatureHumidityPressure
High64 °F (May 21, 4:00 pm)99% (May 11, 2:00 am)30.40 "Hg (May 11, 2:00 am)
Low34 °F (May 14, 3:00 am)36% (May 14, 1:00 pm)29.60 "Hg (May 12, 12:00 pm)
Average48 °F71%30.09 "Hg
* Reported May 8 11:00 pm — May 23 11:00 pm, Luleå. Weather by CustomWeather, © 2019

Note: Actual official high and low records may vary slightly from our data, if they occured in-between our weather recording intervals... More about our weather records

Advertising

Luleå Weather History for the Previous 24 Hours

Scroll right to see more
 ConditionsComfort  
Time TempWeatherWind HumidityBarometerVisibility
11:00 pm
Thu, May 23
46 °FOvercast.No wind55%29.98 "Hg28 mi
10:00 pm45 °FOvercast.No wind56%29.98 "Hg28 mi
9:00 pm46 °FOvercast.No wind51%29.99 "Hg28 mi
8:00 pm47 °FOvercast.1 mph47%30.00 "Hg28 mi
7:00 pm47 °FOvercast.1 mph47%30.01 "Hg28 mi
6:00 pm47 °FPartly sunny.5 mph46%30.02 "Hg28 mi
5:00 pm47 °FOvercast.2 mph45%30.03 "Hg28 mi
4:00 pm47 °FPartly sunny.3 mph44%30.05 "Hg47 mi
3:00 pm45 °FPartly sunny.3 mph47%30.06 "Hg47 mi
2:00 pm46 °FPartly sunny.5 mph47%30.08 "Hg47 mi
1:00 pm45 °FPartly sunny.3 mph45%30.09 "Hg47 mi
12:00 pm45 °FPartly sunny.3 mph53%30.09 "Hg47 mi
11:00 am44 °FPartly sunny.6 mph58%30.09 "Hg47 mi
10:00 am43 °FPartly sunny.5 mph61%30.09 "Hg47 mi
9:00 am43 °FOvercast.3 mph61%30.09 "Hg47 mi
8:00 am44 °FPartly sunny.6 mph60%30.10 "Hg25 mi
7:00 am42 °FOvercast.5 mph64%30.11 "Hg40 mi
6:00 am41 °FOvercast.3 mph67%30.11 "Hg40 mi
5:00 am40 °FSunny.2 mph66%30.11 "Hg28 mi
4:00 am39 °FSunny.2 mph69%30.12 "Hg28 mi
3:00 am39 °FSunny.2 mph67%30.12 "Hg28 mi
2:00 am41 °FClear.2 mph64%30.11 "Hg28 mi
1:00 am42 °FClear.5 mph62%30.10 "Hg28 mi
Weather by CustomWeather, © 2019

See weather overview